Total_Precipitation_Accumulation
0.75 0.76 0.74 0.74 0.73 0.69 0.67 0.66 0.62 0.58 0.54 0.50 0.50 0.50 0.47 0.40 0.33 0.31 0.27 0.29 0.32 0.36 0.48 0.68 0.89 1.18 1.46 1.52 1.56 1.45 1.33 1.27 1.14 1.00 0.98 1.11 1.20 1.16 1.10 1.16 1.07 0.90 0.85
0.79 0.78 0.81 0.75 0.72 0.70 0.68 0.66 0.61 0.56 0.53 0.48 0.45 0.41 0.41 0.42 0.39 0.37 0.35 0.34 0.33 0.33 0.40 0.57 0.77 1.00 1.34 1.57 1.68 1.82 1.64 1.51 1.45 1.25 1.05 1.03 1.11 1.15 1.16 1.17 1.22 1.13 0.98
0.96 0.87 0.84 0.81 0.74 0.72 0.73 0.73 0.70 0.61 0.57 0.50 0.45 0.40 0.37 0.36 0.35 0.38 0.39 0.38 0.38 0.36 0.38 0.48 0.63 0.83 1.08 1.37 1.64 1.90 2.03 1.78 1.70 1.64 1.39 1.13 1.11 1.19 1.24 1.28 1.30 1.34 1.22
1.05 1.05 0.95 0.87 0.79 0.79 0.80 0.81 0.79 0.73 0.63 0.56 0.51 0.45 0.39 0.36 0.33 0.33 0.35 0.37 0.40 0.40 0.40 0.44 0.50 0.64 0.87 1.12 1.41 1.73 2.25 2.19 1.97 1.88 1.83 1.51 1.23 1.18 1.22 1.31 1.37 1.40 1.47
1.13 1.11 1.12 1.05 0.93 0.89 0.84 0.80 0.77 0.75 0.70 0.64 0.58 0.54 0.49 0.42 0.38 0.36 0.33 0.31 0.33 0.39 0.42 0.45 0.49 0.54 0.69 0.90 1.19 1.52 2.11 2.41 2.35 2.27 2.21 2.02 1.62 1.33 1.25 1.29 1.40 1.47 1.57
1.19 1.11 1.13 1.17 1.10 1.02 0.95 0.85 0.78 0.71 0.66 0.64 0.65 0.63 0.55 0.50 0.46 0.42 0.39 0.35 0.31 0.33 0.39 0.44 0.49 0.50 0.58 0.74 0.96 1.24 1.65 2.07 2.31 2.45 2.48 2.52 2.32 1.82 1.52 1.44 1.49 1.63 1.73
1.23 1.22 1.10 1.08 1.09 1.05 0.98 0.91 0.87 0.84 0.77 0.70 0.74 0.79 0.74 0.61 0.53 0.48 0.45 0.43 0.39 0.35 0.36 0.40 0.46 0.52 0.56 0.65 0.77 0.95 1.25 1.65 2.00 2.25 2.37 2.51 2.74 2.55 2.08 1.77 1.68 1.76 1.89
1.16 1.25 1.24 1.08 0.99 0.98 0.97 0.92 0.90 0.89 0.88 0.80 0.77 0.83 0.85 0.83 0.66 0.48 0.44 0.44 0.43 0.42 0.41 0.40 0.42 0.49 0.57 0.60 0.62 0.71 0.89 1.23 1.69 2.10 2.34 2.46 2.68 2.95 2.74 2.26 1.99 1.93 2.03
1.10 1.12 1.22 1.21 1.07 0.95 0.93 0.89 0.86 0.84 0.85 0.80 0.71 0.83 0.91 0.79 0.64 0.53 0.45 0.39 0.39 0.41 0.41 0.41 0.41 0.43 0.50 0.59 0.59 0.58 0.63 0.87 1.31 1.78 2.23 2.53 2.72 3.03 3.20 2.94 2.51 2.27 2.29
1.11 1.08 1.09 1.16 1.18 1.06 0.90 0.84 0.83 0.84 0.87 0.87 0.76 0.67 0.69 0.68 0.72 0.62 0.51 0.46 0.42 0.41 0.40 0.40 0.41 0.40 0.44 0.52 0.58 0.58 0.59 0.69 0.99 1.48 1.96 2.50 2.88 3.15 3.56 3.54 3.24 2.80 2.58
1.17 1.09 1.07 1.08 1.09 1.06 0.94 0.84 0.83 0.85 0.87 0.87 0.83 0.72 0.65 0.56 0.57 0.67 0.57 0.49 0.52 0.49 0.46 0.46 0.46 0.44 0.44 0.48 0.52 0.58 0.66 0.73 0.94 1.30 1.74 2.30 3.03 3.35 3.77 4.00 3.65 3.09 2.73
1.25 1.14 1.04 1.03 0.99 0.96 0.92 0.84 0.76 0.75 0.77 0.78 0.75 0.74 0.74 0.71 0.61 0.62 0.60 0.47 0.46 0.48 0.49 0.53 0.55 0.53 0.51 0.52 0.55 0.68 0.74 0.80 0.96 1.20 1.42 1.82 2.44 3.14 3.62 3.95 3.83 3.34 2.92
1.23 1.15 1.07 1.01 0.96 0.91 0.88 0.85 0.80 0.72 0.69 0.73 0.72 0.68 0.66 0.63 0.58 0.63 0.72 0.63 0.54 0.49 0.52 0.54 0.54 0.58 0.58 0.61 0.63 0.73 0.75 0.79 0.87 1.07 1.15 1.25 1.63 2.29 3.04 3.65 3.98 3.77 3.31
1.10 1.04 1.05 1.00 0.93 0.91 0.91 0.89 0.86 0.78 0.72 0.71 0.69 0.67 0.67 0.62 0.63 0.70 0.80 0.88 0.82 0.60 0.53 0.53 0.49 0.50 0.57 0.60 0.61 0.70 0.66 0.74 0.81 0.93 0.99 1.04 1.20 1.57 2.21 2.96 3.77 4.26 3.99
1.05 1.05 1.06 1.07 1.00 0.99 1.00 0.97 0.93 0.85 0.79 0.75 0.73 0.72 0.73 0.69 0.68 0.69 0.75 0.88 1.10 0.98 0.62 0.45 0.45 0.48 0.55 0.61 0.61 0.58 0.56 0.68 0.74 0.82 0.94 0.99 1.07 1.27 1.64 2.22 2.85 3.78 4.39
1.01 1.03 1.09 1.13 1.09 1.03 1.07 1.08 1.00 0.91 0.88 0.83 0.81 0.82 0.77 0.73 0.75 0.78 0.83 0.83 0.90 1.03 0.83 0.45 0.42 0.43 0.52 0.67 0.75 0.65 0.61 0.75 0.78 0.80 0.83 0.86 0.95 1.12 1.38 1.72 2.17 2.78 3.68
1.01 0.98 1.00 1.09 1.16 1.11 1.04 1.10 1.08 1.01 0.97 0.89 0.85 0.86 0.82 0.78 0.86 0.89 0.94 0.93 0.88 0.92 0.95 0.56 0.45 0.49 0.63 0.74 0.81 0.76 0.75 0.74 0.74 0.78 0.80 0.86 0.91 1.03 1.24 1.48 1.72 2.11 2.77
1.05 0.96 0.93 1.01 1.11 1.12 1.06 1.07 1.07 1.02 1.01 0.98 0.91 0.91 0.89 0.86 0.89 0.92 1.00 1.00 0.92 0.86 0.93 0.78 0.60 0.63 0.73 0.82 0.85 0.83 0.82 0.80 0.72 0.75 0.77 0.88 0.95 1.02 1.18 1.35 1.50 1.73 2.13
1.21 1.06 0.98 1.00 1.09 1.15 1.10 1.03 1.07 1.06 0.98 0.92 0.90 0.93 0.95 0.95 0.90 0.90 1.00 1.05 0.99 0.94 0.97 0.97 0.77 0.69 0.78 0.90 1.01 1.00 0.95 0.93 0.82 0.80 0.82 0.90 0.99 1.02 1.09 1.23 1.43 1.58 1.76
1.26 1.19 1.06 1.01 1.07 1.19 1.22 1.20 1.21 1.16 1.07 0.93 0.82 0.82 0.91 1.04 1.04 1.05 1.10 1.08 1.11 1.15 1.14 1.13 0.97 0.86 0.90 0.99 1.13 1.18 1.15 1.09 1.02 0.92 0.96 1.01 1.07 1.10 1.07 1.08 1.16 1.29 1.47
1.13 1.16 1.15 1.07 1.07 1.27 1.50 1.66 1.55 1.28 1.10 1.00 0.83 0.75 0.84 1.08 1.26 1.43 1.48 1.37 1.37 1.50 1.48 1.43 1.30 1.15 1.05 1.10 1.21 1.20 1.26 1.18 1.16 1.11 1.06 1.07 1.02 1.00 0.98 1.00 1.05 1.13 1.23
1.08 1.10 1.11 1.10 1.07 1.24 1.60 1.82 1.50 1.16 1.03 0.97 0.91 0.80 0.84 1.07 1.22 1.34 1.48 1.46 1.50 1.68 1.79 1.74 1.59 1.37 1.07 0.97 1.05 1.25 1.45 1.59 1.52 1.28 1.18 1.19 1.03 1.01 0.97 0.91 1.03 1.12 1.18
1.07 1.06 1.04 1.04 1.01 1.06 1.39 1.62 1.38 1.08 0.97 0.92 0.89 0.85 0.87 0.97 1.09 1.11 1.21 1.24 1.27 1.45 1.70 1.81 1.76 1.38 1.16 1.06 1.26 1.48 1.55 1.66 1.54 1.45 1.47 1.53 1.23 1.12 1.02 1.03 1.15 1.13 1.18
1.05 1.04 1.03 1.00 0.97 1.00 1.27 1.52 1.34 1.07 0.98 0.93 0.93 0.87 0.81 0.86 0.98 1.13 1.21 1.16 1.09 1.16 1.40 1.60 1.79 1.60 1.39 1.41 1.68 1.93 2.04 2.06 1.80 1.67 1.63 1.84 1.52 1.28 1.17 1.13 1.20 1.13 1.11
1.04 1.02 0.99 1.00 0.95 0.94 1.19 1.54 1.42 1.10 1.02 0.96 0.96 0.90 0.81 0.77 0.96 1.13 1.10 1.07 1.00 1.04 1.17 1.38 1.54 1.61 1.62 1.77 2.07 2.46 2.63 2.62 2.35 2.02 1.81 1.84 1.77 1.61 1.56 1.52 1.43 1.32 1.14
0.97 0.99 0.94 0.94 0.92 0.87 1.04 1.44 1.55 1.15 1.05 0.98 0.97 0.93 1.00 0.98 1.07 1.09 1.00 1.06 1.16 1.04 0.99 1.04 1.09 1.14 1.20 1.35 1.76 2.21 2.56 2.69 2.46 2.36 2.05 1.85 1.85 1.88 2.24 2.05 1.69 1.40 1.22